Location: Laterina
(43.5167°N, 11.7167°E)
Time: 16:42:10
(UTC+00:00)

Meteor 2-19 Rocket - Pass Details

Date: 24 September 2020
Orbit: 935 x 959 km, 82.5° (Epoch: 25 October)

Event Time Altitude Azimuth Distance (km) Brightness Sun altitude
Rises 19:55:35 0° 350° (N) 3,628 8.0 -30.1°
Reaches altitude 10° 19:58:05 10° 349° (N) 2,676 7.3 -30.5°
Enters shadow 20:03:47 74° 305° (NW) 983 4.5 -31.4°
